This is the latest recevied weather packets stored in our database for station/object K5GHS-1. If no packets are shown the sender has not sent any weather packets the latest 10 day(s).
| Time | Temp. | Humidity | Pressure | Rain* | Wind** | Luminosity | Snow |
|---|---|---|---|---|---|---|---|
| 1788633250 | 36.11° C | 47% | 1012.2 hPa | 0 mm | - | 694 W/m² | - |
| 1788632940 | 36.11° C | 48% | 1012.6 hPa | 0 mm | - | 672 W/m² | - |
| 1788632639 | 36.67° C | 47% | 1012.6 hPa | 0 mm | - | 636 W/m² | - |
| 1788632335 | 36.67° C | 47% | 1012.5 hPa | 0 mm | - | 650 W/m² | - |
| 1788632035 | 36.11° C | 47% | 1012.5 hPa | 0 mm | - | 182 W/m² | - |
| 1788631734 | 36.11° C | 48% | 1012.4 hPa | 0 mm | - | 704 W/m² | - |
| 1788631448 | 35.56° C | 48% | 1012.8 hPa | 0 mm | - | 707 W/m² | - |
| 1788631123 | 35° C | 49% | 1012.7 hPa | 0 mm | - | 691 W/m² | - |
| 1788630818 | 36.11° C | 47% | 1013 hPa | 0 mm | - | 115 W/m² | - |
| 1788630513 | 35.56° C | 47% | 1013 hPa | 0 mm | - | 730 W/m² | - |
| 1788630209 | 35.56° C | 49% | 1013.1 hPa | 0 mm | - | 725 W/m² | - |
| 1788629904 | 35.56° C | 49% | 1013 hPa | 0 mm | - | 694 W/m² | - |
| 1788629601 | 36.11° C | 47% | 1013.4 hPa | 0 mm | - | 128 W/m² | - |
| 1788629301 | 35.56° C | 49% | 1013.3 hPa | 0 mm | - | 722 W/m² | - |
| 1788628998 | 35.56° C | 50% | 1013.2 hPa | 0 mm | - | 699 W/m² | - |
| 1788628695 | 35° C | 51% | 1013.3 hPa | 0 mm | - | 734 W/m² | - |
| 1788628391 | 35° C | 51% | 1013.6 hPa | 0 mm | - | 706 W/m² | - |
| 1788628087 | 35° C | 50% | 1013.4 hPa | 0 mm | - | 724 W/m² | - |
| 1788627803 | 35° C | 50% | 1013.4 hPa | 0 mm | - | 742 W/m² | - |
| 1788627482 | 35° C | 52% | 1013.5 hPa | 0 mm | - | 726 W/m² | - |
| 1788627178 | 35.56° C | 51% | 1013.7 hPa | 0 mm | - | 789 W/m² | - |
| 1788626877 | 35.56° C | 50% | 1013.7 hPa | 0 mm | - | 727 W/m² | - |
| 1788626572 | 36.11° C | 49% | 1013.6 hPa | 0 mm | - | 708 W/m² | - |
| 1788626268 | 35.56° C | 49% | 1013.6 hPa | 0 mm | - | 691 W/m² | - |
| 1788625973 | 35° C | 50% | 1013.5 hPa | 0 mm | - | 691 W/m² | - |
* Rain latest hour (hover to see other rain measurements)
** Current wind speed in m/s (hover to see current wind gust speed)